[[{"header":{"parameterUnit":"m.s-1","parameterCategory":1,"la1":30.2991,"la2":30.254,"lo1":-89.0895,"lo2":-89.0444,"dy":0.0017,"dx":0.0017,"nx":28,"ny":28,"refTime":"2024-02-29T09:00:00:Z","depth":0,"parameterNumber":2,"parameterNumberName":"U-component_of_WINDS"},"data":[0,0,0,0,0,0,0,0,0,0,0,0,0,0,0,0,0,0,0,0,0,0,0,0,0,0,0,0,0,0,0,0,0,0,0,0,0,0,0,0,0,0,0,0,0,0,0,0,0,0,0,0,0,0,0,0,0,0,-7.7609,-7.7611,0,-7.7829,-7.7832,-7.7834,-7.781,-7.7806,-7.7803,-7.78,-7.8022,-7.8031,-7.804,0,0,0,0,0,0,0,0,0,0,0,0,0,-7.7163,-7.7171,-7.7608,-7.7611,-7.7614,-7.7829,-7.7832,-7.7835,-7.7811,-7.7806,-7.7802,-7.7798,-7.8019,-7.803,-7.8041,0,0,0,0,0,0,0,0,0,0,0,0,0,-7.7367,-7.7174,-7.7608,-7.7628,-7.7632,-7.7828,-7.7832,-7.7836,-7.7811,-7.7806,-7.7801,-7.7796,-7.8015,-7.8028,-7.8042,-7.8232,0,0,-7.8084,-7.809,0,0,0,0,0,0,0,0,-7.7356,-7.7384,-7.7622,-7.7627,-7.7632,-7.7787,-7.7756,-7.7968,-7.7813,-7.7743,-7.78,-7.7793,-7.7948,-7.7967,-7.8019,-7.8242,-7.8252,-7.8085,-7.8094,-7.81,-7.8103,0,0,0,0,0,0,0,-7.7342,-7.7374,-7.7696,-7.7626,-7.7631,-7.7625,-7.7648,-7.7796,-7.7872,-7.7749,-7.7748,-7.7774,-7.7949,-7.8006,-7.8024,-7.8255,-7.8085,-7.8097,-7.8106,-7.8111,-7.8644,-7.8649,0,0,0,0,0,0,-7.7323,-7.7362,-7.7689,-7.7702,-7.7478,-7.7637,-7.7663,-7.7742,-7.787,-7.7885,-7.7778,-7.7772,-7.7985,-7.8008,-7.8032,-7.826,-7.8099,-7.8112,-7.812,-7.8638,-7.8645,-7.8651,0,0,0,0,0,0,-7.7314,-7.7352,-7.768,-7.7532,-7.7573,-7.765,-7.7739,-7.7749,-7.7806,-7.7893,-7.7906,-7.7823,-7.7982,-7.8013,-7.8182,-7.8268,-7.8119,-7.8131,-7.8631,-7.864,-7.8648,-7.872,0,0,0,0,0,0,-7.7301,-7.7349,-7.7422,-7.7534,-7.7581,-7.7827,-7.7745,-7.7757,-7.783,-7.7824,-7.7938,-7.7952,-7.798,-7.8162,-7.8196,-7.8284,-7.8142,-7.8623,-7.8635,-7.8645,-7.871,-7.873,-7.8747,0,0,0,0,0,-7.7285,-7.7433,-7.7426,-7.7466,-7.7675,-7.7832,-7.7859,-7.789,-7.7838,-7.7911,-7.7967,-7.7948,-7.8255,-7.818,-7.8218,-7.8311,-7.8618,-7.8632,-7.8645,-7.8702,-7.8726,-7.8747,0,0,0,0,0,0,-7.7327,-7.7448,-7.7441,-7.763,-7.7722,-7.7828,-7.7921,-7.7915,-7.8022,-7.8011,-7.8045,-7.807,-7.8241,-7.8294,-7.8208,-7.8501,-7.8429,-7.845,-7.8459,-7.8483,-7.8501,-7.8483,-7.8153,0,0,0,0,0,-7.7359,-7.7478,-7.7577,-7.7734,-7.778,-7.7843,-7.7913,-7.793,-7.8024,-7.8062,-7.813,-7.8222,-7.8339,-7.8415,-7.8528,-7.872,-7.8743,-7.8803,-7.8822,-7.8836,-7.8853,-7.8957,-7.8984,-7.8695,-7.8695,-7.8695,0,0,-7.7424,-7.7505,-7.7578,-7.7744,-7.7817,-7.7937,-7.7875,-7.8006,-7.8095,-7.8082,-7.8245,-7.8299,-7.8404,-7.8585,-7.8669,-7.8634,-7.8939,-7.8853,-7.8865,-7.8873,-7.8973,-7.9,-7.9024,-7.8704,-7.8702,-7.8701,0,0,-7.7604,-7.7679,-7.7817,-7.7892,-7.8003,-7.8045,-7.8078,-7.8187,-7.8222,-7.8388,-7.838,-7.8487,-7.8689,-7.8763,-7.8827,-7.904,-7.9025,-7.9076,-7.917,-7.9271,-7.9294,-7.9314,-7.9386,-7.9412,-7.9093,-7.9093,-7.9094,0,-7.7671,-7.7854,-7.7888,-7.8021,-7.8093,-7.809,-7.8229,-7.8299,-7.8441,-7.8491,-7.8452,-7.8705,-7.8775,-7.8973,-7.9025,-7.9079,-7.9116,-7.906,-7.9288,-7.9309,-7.9328,-7.9397,-7.9425,-7.9098,-7.9098,-7.9097,-7.9097,0,-7.7928,-7.8056,-7.8154,-7.8292,-7.8377,-7.8512,-7.8566,-7.8648,-7.8659,-7.8704,-7.8872,-7.8958,-7.9087,-7.9137,-7.9148,-7.9336,-7.9311,-7.9281,-7.9207,-7.936,-7.9425,-7.9452,-7.9106,-7.9104,-7.9102,-7.9101,0,0,-7.8135,-7.8294,-7.8329,-7.8391,-7.8516,-7.8614,-7.875,-7.8878,-7.8945,-7.9046,-7.9157,-7.933,-7.9302,-7.9375,-7.9396,-7.9485,-7.9644,-7.9443,-7.9446,-7.9473,-7.9854,-7.9872,-7.9903,-7.9638,-7.9643,-7.9648,-7.9844,0,-7.8324,-7.8563,-7.86,-7.8811,-7.8927,-7.8928,-7.9046,-7.9134,-7.9182,-7.9287,-7.934,-7.9459,-7.9416,-7.946,-7.9549,-7.9606,-7.972,-7.9593,-7.9739,-7.9744,-7.9707,-7.9937,-7.9957,-8.0138,-7.987,-7.9874,-7.9877,0,-7.8574,-7.8682,-7.8904,-7.9013,-7.9063,-7.9169,-7.9289,-7.9391,-7.9492,-7.952,-7.9604,-7.9614,-7.9753,-7.9679,-7.987,-7.9783,-7.9846,-7.9884,-7.9892,-7.9902,-7.9816,-7.9949,-8.0197,-8.0222,-7.9919,-7.9915,-7.9913,0,-7.8697,-7.8898,-7.9057,-7.9111,-7.9243,-7.9317,-7.9375,-7.9471,-7.9546,-7.9652,-7.9701,-7.9822,-7.9886,-7.9979,-8.0021,-7.9964,-8.0209,-8.0139,-8.0233,-8.0232,-8.028,-8.0275,-8.0536,-8.033,-8.0329,-8.0329,-8.0328,0,-7.8901,-7.9035,-7.9114,-7.921,-7.9362,-7.9404,-7.9552,-7.9609,-7.9695,-7.9802,-7.9812,-7.9911,-7.9964,-8.0072,-8.0106,-8.0258,-8.0288,-8.0313,-8.0319,-8.0309,-8.0305,-8.0346,-8.0333,-8.0336,-8.0335,-8.0333,-8.0332,0,-7.906,-7.9119,-7.9291,-7.9404,-7.9436,-7.9541,-7.9637,-7.9731,-7.978,-7.9915,-7.995,-8.0026,-8.0153,-8.0207,-8.0363,-8.0386,-8.0559,-8.0559,-8.0524,-8.0525,-8.0615,-8.0604,-8.0907,-8.0947,-8.0719,-8.0722,-8.0723,0,-7.9183,-7.9287,-7.9412,-7.9485,-7.9546,-7.9664,-7.9741,-7.9788,-7.9868,-7.9992,-8.007,-8.0199,-8.0303,-8.0507,-8.0575,-8.0695,-8.0695,-8.0793,-8.0712,-8.0698,-8.0691,-8.0682,-8.0691,-8.0805,-8.0808,-8.0809,-8.0811,0,-7.9394,-7.9418,-7.9529,-7.9652,-7.9744,-7.9842,-7.9938,-7.9997,-8.0059,-8.0149,-8.028,-8.0361,-8.0523,-8.0649,-8.0773,-8.0832,-8.0831,-8.0837,-8.0864,-8.0852,-8.0826,-8.0837,-8.0559,-8.0828,-8.0826,-8.0825,-8.0824,-8.0824,-7.9535,-7.9627,-7.973,-7.9853,-7.9932,-8.0021,-8.0115,-8.0177,-8.0288,-8.0423,-8.0445,-8.0585,-8.0684,-8.0852,-8.0917,-8.1026,-8.1,-8.1041,-8.105,-8.1058,-8.1062,-8.0814,-8.1049,-8.1049,-8.1048,-8.1048,-8.1048,0,-7.9742,-7.9809,-7.9923,-8.0058,-8.0155,-8.0151,-8.0257,-8.0338,-8.0461,-8.0555,-8.0659,-8.081,-8.0934,-8.1014,-8.1138,-8.121,-8.1213,-8.124,-8.1232,-8.1246,-8.1079,-8.1041,-8.1236,-8.1236,-8.1236,-8.1236,-8.1236,-8.1236,-7.986,-8.0015,-8.0052,-8.0246,-8.0312,-8.045,-8.0511,-8.0593,-8.0669,-8.0837,-8.094,-8.0993,-8.1081,-8.1213,-8.1326,-8.1346,-8.1389,-8.1418,-8.1436,-8.1277,-8.1258,-8.1239,-8.1202,-8.1428,-8.1429,-8.1592,-8.1594,-8.1595]},{"header":{"parameterUnit":"m.s-1","parameterCategory":1,"la1":30.2991,"la2":30.254,"lo1":-89.0895,"lo2":-89.0444,"dy":0.0017,"dx":0.0017,"nx":28,"ny":28,"refTime":"2024-02-29T09:00:00:Z","depth":0,"parameterNumber":3,"parameterNumberName":"V-component_of_WINDS"},"data":[0,0,0,0,0,0,0,0,0,0,0,0,0,0,0,0,0,0,0,0,0,0,0,0,0,0,0,0,0,0,0,0,0,0,0,0,0,0,0,0,0,0,0,0,0,0,0,0,0,0,0,0,0,0,0,0,0,0,3.615,3.615,0,3.6164,3.6164,3.6164,3.6096,3.6094,3.6093,3.6091,3.6104,3.6106,3.6108,0,0,0,0,0,0,0,0,0,0,0,0,0,3.6065,3.6067,3.615,3.615,3.615,3.6164,3.6164,3.6164,3.6097,3.6094,3.6092,3.609,3.6103,3.6106,3.6108,0,0,0,0,0,0,0,0,0,0,0,0,0,3.6093,3.6068,3.615,3.6118,3.6116,3.6164,3.6164,3.6164,3.6097,3.6094,3.6091,3.6089,3.6102,3.6106,3.6109,3.6188,0,0,3.6119,3.612,0,0,0,0,0,0,0,0,3.6092,3.6096,3.6123,3.6121,3.6118,3.6125,3.6139,3.6172,3.6098,3.6104,3.6091,3.6087,3.6113,3.6116,3.6125,3.6189,3.6189,3.6119,3.6121,3.6122,3.6123,0,0,0,0,0,0,0,3.609,3.6095,3.6155,3.6123,3.612,3.6104,3.6104,3.6145,3.6125,3.6103,3.6099,3.6101,3.6111,3.6122,3.6124,3.6189,3.6119,3.6122,3.6124,3.6125,3.6322,3.6325,0,0,0,0,0,0,3.6092,3.6094,3.6155,3.6156,3.6097,3.6108,3.6108,3.6126,3.6125,3.6121,3.6104,3.6098,3.6118,3.6121,3.6125,3.6219,3.6122,3.6126,3.6127,3.6318,3.6322,3.6326,0,0,0,0,0,0,3.6091,3.6098,3.6154,3.6124,3.613,3.6112,3.6133,3.6128,3.6138,3.6125,3.6121,3.6118,3.6115,3.612,3.6173,3.6218,3.6127,3.613,3.6315,3.632,3.6324,3.6407,0,0,0,0,0,0,3.6088,3.6098,3.6127,3.6125,3.6132,3.6203,3.6135,3.613,3.6144,3.6137,3.6137,3.6134,3.6113,3.6169,3.6177,3.6221,3.6133,3.631,3.6317,3.6323,3.64,3.6414,3.6426,0,0,0,0,0,3.6086,3.6149,3.6129,3.6137,3.6168,3.6206,3.6209,3.6184,3.6148,3.6178,3.617,3.6134,3.6212,3.6175,3.6183,3.6229,3.6308,3.6315,3.6322,3.6394,3.6411,3.6426,0,0,0,0,0,0,3.6156,3.6148,3.6126,3.6191,3.62,3.6194,3.6231,3.6203,3.6222,3.6214,3.6182,3.6183,3.6242,3.6241,3.6199,3.6307,3.6254,3.6263,3.6306,3.6322,3.6334,3.6333,3.6135,0,0,0,0,0,3.618,3.6211,3.6202,3.626,3.6266,3.6248,3.6263,3.6244,3.6251,3.6254,3.625,3.6259,3.6285,3.6303,3.6327,3.64,3.64,3.6436,3.6449,3.646,3.6468,3.6508,3.6525,3.635,3.635,3.635,0,0,3.6228,3.6227,3.6248,3.6275,3.6279,3.6313,3.6251,3.6289,3.6313,3.626,3.631,3.6308,3.6316,3.638,3.6408,3.6381,3.6517,3.6469,3.6478,3.648,3.6518,3.6534,3.6549,3.6355,3.6354,3.6353,0,0,3.6332,3.6335,3.6385,3.6391,3.6399,3.6387,3.64,3.6399,3.6396,3.6446,3.6408,3.6437,3.6483,3.6491,3.6501,3.6612,3.6581,3.6621,3.6688,3.6728,3.6742,3.6754,3.6795,3.681,3.6629,3.663,3.663,0,3.6391,3.644,3.6413,3.6454,3.6468,3.6422,3.6473,3.6481,3.6496,3.6506,3.6476,3.6535,3.6537,3.6603,3.6631,3.664,3.6654,3.662,3.6742,3.6754,3.6765,3.6804,3.6819,3.6635,3.6634,3.6633,3.6633,0,3.6512,3.6547,3.6586,3.6604,3.6621,3.6667,3.6648,3.667,3.665,3.6641,3.6695,3.6696,3.672,3.6734,3.6714,3.6799,3.6782,3.6748,3.6693,3.6787,3.6823,3.6837,3.6641,3.664,3.6638,3.6637,0,0,3.6659,3.6664,3.6679,3.6688,3.6695,3.6721,3.6766,3.6791,3.681,3.6823,3.686,3.6902,3.6871,3.6883,3.6864,3.6899,3.6989,3.686,3.686,3.6885,3.7084,3.711,3.7128,3.6969,3.6972,3.6974,3.7084,0,3.6763,3.6839,3.6818,3.6895,3.6928,3.6887,3.6926,3.6935,3.693,3.6957,3.695,3.6981,3.6937,3.6944,3.6977,3.6971,3.7029,3.6963,3.7004,3.7005,3.7003,3.7146,3.7173,3.7277,3.7098,3.71,3.7102,0,3.6893,3.6913,3.6993,3.6998,3.7011,3.7046,3.7069,3.7095,3.7106,3.7099,3.7114,3.7088,3.7133,3.708,3.7142,3.7097,3.7113,3.7113,3.7117,3.7119,3.7059,3.7154,3.7309,3.7325,3.7123,3.7122,3.712,0,3.6994,3.7041,3.7096,3.7104,3.711,3.7137,3.714,3.7148,3.7165,3.7185,3.7196,3.722,3.7234,3.7253,3.7236,3.7198,3.7302,3.7245,3.7298,3.7299,3.7321,3.732,3.7482,3.7331,3.7331,3.733,3.733,0,3.7112,3.7163,3.7141,3.7175,3.7232,3.7208,3.7265,3.7264,3.7271,3.7305,3.7271,3.7303,3.7277,3.7308,3.7294,3.7349,3.7355,3.7351,3.7347,3.7354,3.7355,3.7364,3.7357,3.7335,3.7334,3.7333,3.7332,0,3.7233,3.7221,3.7278,3.7281,3.7283,3.7324,3.7326,3.7358,3.7351,3.7394,3.7402,3.7391,3.7425,3.741,3.7445,3.7436,3.7507,3.7493,3.7504,3.75,3.7554,3.7549,3.7728,3.7751,3.7584,3.7586,3.7587,0,3.7309,3.7348,3.7355,3.7376,3.7383,3.7415,3.7434,3.7412,3.7433,3.7449,3.7479,3.7511,3.7535,3.7591,3.7586,3.7614,3.76,3.7661,3.7604,3.7611,3.7603,3.7601,3.7605,3.7673,3.7674,3.7676,3.7677,0,3.7446,3.7439,3.7466,3.7493,3.7516,3.7535,3.7552,3.757,3.755,3.7575,3.761,3.7629,3.7666,3.7698,3.7723,3.7727,3.77,3.7696,3.7709,3.7717,3.7723,3.7722,3.7535,3.7691,3.769,3.7689,3.7688,3.7688,3.7547,3.7581,3.7592,3.7625,3.7636,3.7653,3.7683,3.7681,3.771,3.774,3.7726,3.7767,3.7779,3.7809,3.7818,3.785,3.7826,3.7846,3.7851,3.7856,3.7864,3.7718,3.7854,3.7854,3.7853,3.7853,3.7853,0,3.7683,3.7689,3.772,3.7745,3.7771,3.7744,3.7762,3.7786,3.7823,3.7836,3.7861,3.7903,3.7935,3.7934,3.7963,3.7989,3.7978,3.7998,3.7996,3.7998,3.7883,3.7868,3.8007,3.8007,3.8007,3.8007,3.8007,3.8007,3.7757,3.7813,3.7808,3.7869,3.7874,3.7916,3.7928,3.7944,3.7955,3.8004,3.803,3.803,3.8038,3.8068,3.8097,3.8096,3.8108,3.8134,3.8128,3.8021,3.8005,3.7991,3.7977,3.8137,3.8137,3.824,3.8241,3.8242]}]]